Time,TemperatureF,DewpointF,PressureIn,WindDirection,WindDirectionDegrees,WindSpeedMPH,WindSpeedGustMPH,Humidity,HourlyPrecipIn,Conditions,Clouds,dailyrainin,SoftwareType,DateUTC
2013-07-26 00:23:00,65.0,53.0,-100.00,NE,50,0.0,0.0,65,-99.99,,,-99.99,,2013-07-26 04:23:00,
2013-07-26 00:32:00,62.0,54.0,-100.00,SW,215,0.0,0.0,75,-99.99,,,-99.99,,2013-07-26 04:32:00,
2013-07-26 00:42:00,62.0,54.0,-100.00,SW,215,0.0,0.0,75,-99.99,,,-99.99,,2013-07-26 04:42:00,
2013-07-26 01:02:00,61.0,55.0,-100.00,SW,230,0.0,0.0,81,-99.99,,,-99.99,,2013-07-26 05:02:00,
2013-07-26 01:32:00,60.0,55.0,-100.00,SW,230,0.0,0.0,84,-99.99,,,-99.99,,2013-07-26 05:32:00,
2013-07-26 01:43:00,60.0,55.0,-100.00,SW,230,0.0,0.0,84,-99.99,,,-99.99,,2013-07-26 05:43:00,
2013-07-26 02:02:00,59.0,55.0,-100.00,SW,225,0.0,0.0,85,-99.99,,,-99.99,,2013-07-26 06:02:00,
2013-07-26 02:22:00,59.0,54.0,-100.00,SW,215,0.0,0.0,85,-99.99,,,-99.99,,2013-07-26 06:22:00,
2013-07-26 02:33:00,59.0,54.0,-100.00,SW,220,0.0,0.0,86,-99.99,,,-99.99,,2013-07-26 06:33:00,
2013-07-26 02:43:00,59.0,54.0,-100.00,SW,220,0.0,0.0,86,-99.99,,,-99.99,,2013-07-26 06:43:00,
2013-07-26 03:02:00,58.0,54.0,-100.00,SW,225,0.0,0.0,86,-99.99,,,-99.99,,2013-07-26 07:02:00,
2013-07-26 03:22:00,58.0,54.0,-100.00,SW,235,0.0,0.0,86,-99.99,,,-99.99,,2013-07-26 07:22:00,
2013-07-26 03:32:00,58.0,54.0,-100.00,WSW,250,0.0,0.0,87,-99.99,,,-99.99,,2013-07-26 07:32:00,
2013-07-26 03:43:00,58.0,54.0,-100.00,WSW,250,0.0,0.0,87,-99.99,,,-99.99,,2013-07-26 07:43:00,
2013-07-26 03:44:00,57.0,54.0,-100.00,SW,225,0.0,0.0,87,-99.99,,,-99.99,,2013-07-26 07:44:00,
2013-07-26 03:53:00,58.0,54.0,-100.00,WSW,240,0.0,0.0,87,-99.99,,,-99.99,,2013-07-26 07:53:00,
2013-07-26 04:02:00,58.0,54.0,-100.00,WSW,240,0.0,0.0,87,-99.99,,,-99.99,,2013-07-26 08:02:00,
2013-07-26 04:22:00,58.0,54.0,-100.00,SW,225,0.0,0.0,87,-99.99,,,-99.99,,2013-07-26 08:22:00,
2013-07-26 04:32:00,57.0,54.0,-100.00,SW,225,0.0,0.0,87,-99.99,,,-99.99,,2013-07-26 08:32:00,
2013-07-26 04:52:00,57.0,54.0,-100.00,WSW,250,0.0,0.0,87,-99.99,,,-99.99,,2013-07-26 08:52:00,
2013-07-26 05:02:00,57.0,54.0,-100.00,WSW,250,0.0,0.0,87,-99.99,,,-99.99,,2013-07-26 09:02:00,
2013-07-26 05:12:00,58.0,54.0,-100.00,WSW,250,0.0,0.0,87,-99.99,,,-99.99,,2013-07-26 09:12:00,
2013-07-26 05:22:00,58.0,54.0,-100.00,WSW,250,0.0,0.0,87,-99.99,,,-99.99,,2013-07-26 09:22:00,
2013-07-26 05:52:00,58.0,54.0,-100.00,WSW,250,0.0,0.0,86,-99.99,,,-99.99,,2013-07-26 09:52:00,
2013-07-26 06:02:00,58.0,54.0,-100.00,WSW,250,0.0,0.0,86,-99.99,,,-99.99,,2013-07-26 10:02:00,
2013-07-26 06:33:00,58.0,53.0,-100.00,WSW,255,0.0,0.0,84,-99.99,,,-99.99,,2013-07-26 10:33:00,
2013-07-26 06:42:00,58.0,53.0,-100.00,WSW,255,0.0,0.0,84,-99.99,,,-99.99,,2013-07-26 10:42:00,
2013-07-26 06:53:00,58.0,53.0,-100.00,WSW,255,0.0,0.0,84,-99.99,,,-99.99,,2013-07-26 10:53:00,
2013-07-26 07:02:00,58.0,53.0,-100.00,WSW,255,0.0,0.0,84,-99.99,,,-99.99,,2013-07-26 11:02:00,
2013-07-26 07:12:00,58.0,53.0,-100.00,WSW,255,0.0,0.0,82,-99.99,,,-99.99,,2013-07-26 11:12:00,
2013-07-26 07:22:00,58.0,53.0,-100.00,WSW,255,0.0,0.0,82,-99.99,,,-99.99,,2013-07-26 11:22:00,
2013-07-26 08:22:00,60.0,53.0,-100.00,West,265,0.0,0.0,78,-99.99,,,-99.99,,2013-07-26 12:22:00,
2013-07-26 08:43:00,61.0,53.0,-100.00,West,260,0.0,0.0,75,-99.99,,,-99.99,,2013-07-26 12:43:00,
2013-07-26 09:02:00,62.0,52.0,-100.00,West,260,0.0,0.0,71,-99.99,,,-99.99,,2013-07-26 13:02:00,
2013-07-26 09:43:00,64.0,54.0,-100.00,West,265,0.0,0.0,70,-99.99,,,-99.99,,2013-07-26 13:43:00,
2013-07-26 10:22:00,67.0,53.0,-100.00,WSW,245,0.0,0.0,62,-99.99,,,-99.99,,2013-07-26 14:22:00,
2013-07-26 20:44:00,68.0,54.0,-100.00,ESE,110,0.0,0.0,62,-99.99,,,-99.99,,2013-07-27 00:44:00,
2013-07-26 21:32:00,68.0,54.0,-100.00,ESE,110,0.0,0.0,62,-99.99,,,-99.99,,2013-07-27 01:32:00,
2013-07-26 21:53:00,68.0,56.0,-100.00,East,80,0.0,0.0,66,-99.99,,,-99.99,,2013-07-27 01:53:00,
2013-07-26 22:02:00,68.0,56.0,-100.00,East,80,0.0,0.0,66,-99.99,,,-99.99,,2013-07-27 02:02:00,
2013-07-26 22:12:00,68.0,56.0,-100.00,ENE,65,0.0,0.0,66,-99.99,,,-99.99,,2013-07-27 02:12:00,
2013-07-26 22:22:00,68.0,56.0,-100.00,ENE,65,0.0,0.0,66,-99.99,,,-99.99,,2013-07-27 02:22:00,
2013-07-26 22:32:00,68.0,56.0,-100.00,ENE,65,0.0,0.0,65,-99.99,,,-99.99,,2013-07-27 02:32:00,
2013-07-26 22:43:00,68.0,56.0,-100.00,ENE,65,0.0,0.0,65,-99.99,,,-99.99,,2013-07-27 02:43:00,
2013-07-26 22:44:00,70.0,54.0,-100.00,East,90,0.0,0.0,57,-99.99,,,-99.99,,2013-07-27 02:44:00,
2013-07-26 23:03:00,69.0,55.0,-100.00,ENE,65,0.0,0.0,62,-99.99,,,-99.99,,2013-07-27 03:03:00,
2013-07-26 23:22:00,70.0,55.0,-100.00,NE,50,0.0,0.0,59,-99.99,,,-99.99,,2013-07-27 03:22:00,